Volver al catálogo

FENGYUN 1C DEB

LostPO
NORAD 32333·DEBRIS·🇨🇳 China

Lanzado May 10, 1999 desde Taiyuan Satellite Launch Center

Loading…

Próximos Pases (próximas 24 horas)

TLE

ObsoletoSource: Space-Track

Época: Sep 4, 2024, 06:33 UTC

1 32333U 99025CYA 24248.27354262  .00006123  00000-0  35484-2 0  9998
2 32333  97.8464  67.9104 0111536  40.4371 320.5024 14.06013960571657

Sigue FENGYUN 1C DEB en tiempo real con AllMySat

Download on the App Store